sat.trackr.live / text

‹ back to catalog

BEIDOU-3 M8 (C28)

NORAD 43108 · 2018-003B

PAYLOAD ACTIVE UNKNOWN

§ Identity

Operator
Country
PRC
Launch date
2018-01-11
Launch site
XICLF
Launch vehicle
Mass (kg)
RCS (m²)

Purposes: nav

External: N2YO · Heavens-Above · Gunter

§ Orbital elements

Epoch: 2026-09-10T03:12:34.461216Z

Period
773.23 min
Inclination
54.2415°
Eccentricity
0.0004283
Mean motion
1.86230831 rev/d
Perigee alt
21,516.1 km
Apogee alt
21,540.0 km
Semi-major
27,906.2 km
B*
0.0000e+0
RAAN
299.3277°
Arg perigee
261.7353°
Mean anomaly
98.2887°
Rev number
5,894

§ Raw data

BEIDOU-3 M8 (C28)1 43108U 18003B   26253.13373219 -.00000042  00000+0  00000+0 0  99902 43108  54.2415 299.3277 0004283 261.7353  98.2887  1.86230831 58942

JSON: /api/v1/satellites/43108 · /tle

For live sub-satellite position, see the globe view (requires WebGL).

§ Visibility from observer

Set your observer location to see the next 7 days of passes ≥ 10°. The values pass through the URL so the page stays shareable.

No JS? Fill the form by hand. The geolocation button needs JavaScript.